Regional Weather Roundup
Issued by NWS

Home | Current Version | Previous Version | Text Only | Print | Product List | Glossary On
Versions: 1 2 3 4 5 6 7 8 9 10 11 12 13 14 15 16 17 18 19 20 21 22 23 24 25 26 27 28 29 30 31 32 33 34 35 36 37 38 39 40 41 42 43 44 45 46 47 48 49 50
400
ASUS43 KBIS 201810
RWRND

NORTH DAKOTA REGIONAL WEATHER ROUNDUP
NATIONAL WEATHER SERVICE BISMARCK ND
100 PM CDT THU JUL 20 2017

NOTE: "FAIR" INDICATES FEW OR NO CLOUDS BELOW 12,000 FEET WITH NO
SIGNIFICANT WEATHER AND/OR OBSTRUCTIONS TO VISIBILITY.


NDZ001>003-009>011-017-201900-
NORTHWEST NORTH DAKOTA

CITY           SKY/WX    TMP DP  RH WIND       PRES   REMARKS
WILLISTON      SUNNY     92  53  26 VRB7      29.92F
MINOT          SUNNY     89  60  37 S15G22    29.95F
MINOT AFB      SUNNY     85  64  48 SE13      29.93F
$$

NDZ018>021-031>035-040>046-201900-
SOUTHWEST NORTH DAKOTA

CITY           SKY/WX    TMP DP  RH WIND       PRES   REMARKS
BISMARCK       SUNNY     90  60  36 S12       29.98F
6HR MIN TEMP:  63; 6HR MAX TEMP:  91;

DICKINSON      MOSUNNY   91  61  36 S17G24    29.94F HX  91
GARRISON         N/A     89  61  38 S15       29.94F
6HR MIN TEMP:  63; 6HR MAX TEMP:  90;

HETTINGER ARPT MOSUNNY   89  58  34 S17G24    30.00F
$$

NDZ004>008-012>016-024-026-027-054-201900-
NORTHEAST NORTH DAKOTA

CITY           SKY/WX    TMP DP  RH WIND       PRES   REMARKS
GRAND FORKS    MOSUNNY   80  58  46 NE5       30.00F
GRND FRKS AFB  SUNNY     78  61  55 CALM      30.02F
DEVILS LAKE    SUNNY     78  58  49 SE9       30.02F
$$

NDZ022-023-025-028>030-036>039-047>053-201900-
SOUTHEAST NORTH DAKOTA

CITY           SKY/WX    TMP DP  RH WIND       PRES   REMARKS
FARGO          SUNNY     84  59  42 NE6       30.00F
6HR MIN TEMP:  62; 6HR MAX TEMP:  84;

JAMESTOWN      SUNNY     83  66  56 S9        30.02F
$$





USA.gov is the U.S. government's official web portal to all federal, state and local government web resources and services.